CW9560 Weather Reports


time (UTC)temp
C
wind
direction
speed
KPH
gust
KPH
rain 1hr
cm
rain 24hr
cm
rain mn
cm
humidity
%
barometer
mb
20200404024503 5 236 4.8 14.5 0.00 0.05 0.00 89 1013.3
20200404024002 5 249 6.4 12.9 0.00 0.05 0.00 89 1013.4
20200404023503 5 263 4.8 9.7 0.00 0.05 0.00 89 1013.4
20200404023002 5 268 1.6 4.8 0.00 0.05 0.00 88 1013.5
20200404022502 5 239 1.6 6.4 0.00 0.05 0.00 89 1013.6
20200404022003 5 256 1.6 6.4 0.00 0.05 0.00 89 1013.4
20200404021502 5 306 1.6 9.7 0.00 0.05 0.00 89 1013.5
20200404021002 5 283 4.8 6.4 0.00 0.05 0.00 89 1013.5
20200404020502 5 306 1.6 6.4 0.00 0.05 0.00 89 1013.5
20200404020002 5 254 3.2 4.8 0.00 0.05 0.00 89 1013.6
20200404015503 5 268 3.2 6.4 0.00 0.05 0.00 89 1013.5
20200404015002 5 273 3.2 6.4 0.00 0.05 0.00 90 1013.5
20200404014503 5 281 3.2 6.4 0.00 0.05 0.00 90 1013.5
20200404014003 5 290 3.2 6.4 0.00 0.05 0.00 90 1013.5
20200404013502 5 250 1.6 4.8 0.00 0.05 0.00 90 1013.5
20200404013002 5 248 1.6 4.8 0.00 0.05 0.00 91 1013.6
20200404012502 5 268 3.2 4.8 0.00 0.05 0.00 91 1013.6
20200404012003 5 88 0.0 3.2 0.00 0.05 0.00 90 1013.5
20200404011502 5 88 1.6 3.2 0.00 0.05 0.00 90 1013.6
20200404011002 5 88 0.0 3.2 0.00 0.05 0.00 91 1013.7
20200404010502 5 88 1.6 6.4 0.00 0.05 0.00 91 1013.6
20200404010002 5 88 3.2 6.4 0.00 0.05 0.00 91 1013.5
20200404005502 5 88 0.0 3.2 0.00 0.05 0.00 91 1013.6
20200404005002 5 88 1.6 3.2 0.00 0.05 0.00 91 1013.6
20200404004503 5 88 0.0 3.2 0.00 0.05 0.00 91 1013.5
20200404004002 5 88 1.6 3.2 0.00 0.05 0.00 91 1013.5
20200404003503 5 88 1.6 3.2 0.00 0.05 0.00 91 1013.6
20200404003002 5 88 1.6 1.6 0.00 0.05 0.00 91 1013.6
20200404002502 5 88 0.0 1.6 0.00 0.05 0.00 91 1013.6
20200404002002 5 88 0.0 3.2 0.00 0.05 0.00 91 1013.6
20200404001502 5 88 1.6 3.2 0.00 0.05 0.00 91 1013.7
20200404001002 5 72 1.6 3.2 0.00 0.05 0.00 92 1013.7
20200404000502 5 63 0.0 1.6 0.00 0.05 0.00 92 1013.6
20200404000002 5 63 1.6 1.6 0.00 0.05 0.00 91 1013.7
20200403235502 5 63 1.6 1.6 0.00 0.05 0.00 91 1013.6
20200403235002 5 63 0.0 1.6 0.00 0.05 0.00 91 1013.6
20200403234502 5 63 1.6 3.2 0.00 0.05 0.00 91 1013.6
20200403234002 5 63 0.0 3.2 0.00 0.05 0.00 91 1013.6
20200403233502 5 63 1.6 3.2 0.00 0.05 0.00 91 1013.5
20200403233003 5 63 1.6 3.2 0.00 0.05 0.00 91 1013.5
20200403232502 5 63 1.6 3.2 0.00 0.05 0.00 91 1013.4
20200403232002 4 63 1.6 3.2 0.00 0.05 0.00 91 1013.3
20200403231502 4 53 1.6 3.2 0.00 0.05 0.00 92 1013.3
20200403231002 4 53 3.2 3.2 0.00 0.05 0.00 92 1013.3
20200403230502 4 53 0.0 3.2 0.00 0.05 0.00 91 1013.3
20200403230002 4 53 1.6 3.2 0.00 0.05 0.00 91 1013.4
20200403225502 4 15 1.6 3.2 0.00 0.05 0.05 90 1013.3
20200403225003 4 15 3.2 3.2 0.00 0.05 0.05 90 1013.3
20200403224502 4 342 1.6 3.2 0.00 0.05 0.05 90 1013.3
20200403224003 4 263 0.0 1.6 0.00 0.05 0.05 89 1013.3
20200403223502 4 263 0.0 1.6 0.00 0.05 0.05 89 1013.3
20200403223003 4 263 0.0 1.6 0.00 0.05 0.05 89 1013.3
20200403222503 5 263 0.0 1.6 0.00 0.05 0.05 89 1013.3
20200403222002 5 263 0.0 1.6 0.00 0.05 0.05 89 1013.2
20200403221503 5 263 1.6 3.2 0.00 0.05 0.05 88 1013.2
20200403221003 5 263 1.6 3.2 0.00 0.05 0.05 88 1013.2
20200403220503 5 263 0.0 0.0 0.00 0.05 0.05 88 1013.2
20200403220002 5 263 0.0 0.0 0.00 0.05 0.05 87 1013.2
20200403215503 5 263 0.0 1.6 0.00 0.05 0.05 87 1013.2
20200403215003 5 263 0.0 3.2 0.00 0.05 0.05 87 1013.3
20200403214502 5 263 1.6 4.8 0.00 0.05 0.05 88 1013.3
20200403214003 5 206 1.6 8.0 0.00 0.05 0.05 88 1013.3
20200403213503 5 239 1.6 6.4 0.00 0.05 0.05 88 1013.2
20200403213003 5 229 3.2 4.8 0.00 0.05 0.05 88 1013.3
20200403212502 5 254 1.6 3.2 0.00 0.05 0.05 88 1013.3
20200403212002 5 254 0.0 3.2 0.00 0.05 0.05 89 1013.2
20200403211503 6 254 0.0 3.2 0.00 0.05 0.05 89 1013.2
20200403211002 6 254 0.0 3.2 0.00 0.05 0.05 89 1013.1
20200403210503 6 242 0.0 1.6 0.00 0.05 0.05 89 1013.2
20200403210002 6 242 0.0 1.6 0.00 0.05 0.05 89 1013.2
20200403205502 6 242 1.6 3.2 0.00 0.05 0.05 89 1013.1
20200403205002 6 242 1.6 8.0 0.00 0.05 0.05 89 1013.1
20200403204503 6 273 1.6 8.0 0.00 0.05 0.05 90 1013.2
20200403204003 6 263 0.0 1.6 0.00 0.05 0.05 89 1013.2
20200403203502 6 263 0.0 3.2 0.00 0.05 0.05 88 1013.1
20200403203003 6 263 0.0 4.8 0.00 0.05 0.05 88 1013.2
20200403202502 6 263 0.0 4.8 0.00 0.05 0.05 88 1013.2
20200403202002 6 259 1.6 3.2 0.00 0.05 0.05 88 1013.1
20200403201502 6 279 1.6 4.8 0.00 0.05 0.05 88 1013.0
20200403201002 6 280 3.2 4.8 0.00 0.05 0.05 88 1013.0
20200403200503 6 279 3.2 8.0 0.00 0.05 0.05 88 1013.0
20200403200003 6 288 3.2 8.0 0.00 0.05 0.05 87 1013.0
20200403195502 6 291 3.2 8.0 0.00 0.05 0.05 87 1013.0
20200403195002 6 263 4.8 8.0 0.00 0.05 0.05 87 1012.9
20200403194502 6 273 3.2 6.4 0.00 0.05 0.05 87 1012.9
20200403194002 6 284 3.2 8.0 0.00 0.05 0.05 87 1012.8
20200403193503 6 296 4.8 14.5 0.00 0.05 0.05 86 1012.8
20200403193002 6 298 6.4 14.5 0.03 0.05 0.05 87 1013.0
20200403192502 6 292 4.8 8.0 0.03 0.05 0.05 87 1012.9
20200403192002 6 279 4.8 9.7 0.03 0.05 0.05 87 1013.0
20200403191502 6 279 4.8 9.7 0.03 0.05 0.05 87 1013.0
20200403191002 6 304 4.8 8.0 0.03 0.05 0.05 87 1012.9
20200403190502 6 273 3.2 9.7 0.03 0.05 0.05 87 1012.9
20200403190003 6 289 3.2 9.7 0.03 0.05 0.05 87 1012.9
20200403185503 6 302 3.2 9.7 0.03 0.05 0.05 86 1013.0
20200403185002 6 321 4.8 9.7 0.03 0.05 0.05 86 1013.0
20200403184502 6 268 4.8 9.7 0.03 0.05 0.05 86 1013.0
20200403184002 6 248 4.8 8.0 0.03 0.05 0.05 86 1013.0
20200403183502 6 284 4.8 8.0 0.03 0.05 0.05 86 1013.0
20200403183002 6 317 3.2 8.0 0.00 0.03 0.03 85 1012.8
20200403182502 7 268 4.8 8.0 0.00 0.03 0.03 84 1012.8
20200403182002 7 273 4.8 9.7 0.00 0.03 0.03 84 1012.8
20200403181502 7 294 4.8 12.9 0.00 0.03 0.03 84 1012.7
20200403181002 7 288 4.8 12.9 0.00 0.03 0.03 84 1012.8
20200403180502 7 273 4.8 9.7 0.00 0.03 0.03 84 1012.6
20200403180003 7 244 4.8 9.7 0.00 0.03 0.03 84 1012.7
20200403175502 7 273 4.8 14.5 0.00 0.03 0.03 83 1012.7
20200403175002 7 273 8.0 14.5 0.00 0.03 0.03 83 1012.7
20200403174502 7 302 4.8 17.7 0.00 0.03 0.03 83 1012.7
20200403174002 7 298 6.4 17.7 0.00 0.03 0.03 83 1012.8
20200403173502 7 317 6.4 14.5 0.00 0.03 0.03 84 1012.8
20200403173002 7 268 6.4 12.9 0.00 0.03 0.03 84 1012.8
20200403172503 7 252 4.8 12.9 0.00 0.03 0.03 84 1012.9
20200403172002 7 301 4.8 14.5 0.00 0.03 0.03 84 1012.8
20200403171502 7 268 6.4 14.5 0.03 0.03 0.03 84 1012.9
20200403171002 7 234 6.4 14.5 0.03 0.03 0.03 83 1012.9
20200403170502 7 263 6.4 12.9 0.03 0.03 0.03 84 1012.9
20200403170002 7 273 6.4 12.9 0.03 0.03 0.03 84 1012.8
20200403165502 6 279 6.4 14.5 0.03 0.03 0.03 84 1012.8
20200403165002 6 273 4.8 14.5 0.03 0.03 0.03 84 1012.8
20200403164502 6 318 4.8 12.9 0.03 0.03 0.03 84 1012.8
20200403164002 6 273 6.4 14.5 0.03 0.03 0.03 85 1012.8
20200403163504 6 277 6.4 16.1 0.03 0.03 0.03 85 1012.8
20200403163005 6 229 8.0 16.1 0.03 0.03 0.03 86 1012.8
20200403162502 6 293 8.0 14.5 0.03 0.03 0.03 85 1012.8
20200403162003 6 281 4.8 12.9 0.03 0.03 0.03 85 1012.9
20200403161502 6 308 4.8 12.9 0.00 0.00 0.00 84 1012.8
20200403161002 6 293 6.4 11.3 0.00 0.00 0.00 84 1012.8
20200403160504 6 325 6.4 12.9 0.00 0.00 0.00 84 1012.8
20200403160002 6 287 6.4 14.5 0.00 0.00 0.00 83 1012.7
20200403155504 6 289 4.8 14.5 0.00 0.00 0.00 83 1012.8
20200403155004 6 321 8.0 16.1 0.00 0.00 0.00 83 1012.8
20200403154502 6 327 6.4 17.7 0.00 0.00 0.00 83 1012.7
20200403154002 6 273 8.0 17.7 0.00 0.00 0.00 82 1012.7
20200403153504 7 285 9.7 16.1 0.00 0.00 0.00 81 1012.8
20200403153002 7 292 8.0 14.5 0.00 0.00 0.00 80 1012.7
20200403152504 7 248 8.0 17.7 0.00 0.00 0.00 78 1012.7
20200403152002 7 244 8.0 17.7 0.00 0.00 0.00 77 1012.6
20200403151504 7 294 6.4 16.1 0.00 0.00 0.00 77 1012.6
20200403151004 7 312 8.0 16.1 0.00 0.00 0.00 77 1012.6
20200403150504 7 304 9.7 17.7 0.00 0.00 0.00 76 1012.6
20200403150004 7 281 11.3 20.9 0.00 0.00 0.00 76 1012.6
20200403145502 7 314 9.7 20.9 0.00 0.00 0.00 73 1012.5
20200403145003 7 306 11.3 20.9 0.00 0.00 0.00 73 1012.5
20200403144504 7 299 8.0 19.3 0.00 0.00 0.00 72 1012.6
20200403144004 7 263 9.7 19.3 0.00 0.00 0.00 72 1012.6
20200403143504 7 268 9.7 22.5 0.00 0.00 0.00 71 1012.7
20200403143004 8 263 11.3 22.5 0.00 0.00 0.00 71 1012.6
20200403142504 7 297 9.7 16.1 0.00 0.00 0.00 72 1012.6
20200403142004 7 285 9.7 16.1 0.00 0.00 0.00 74 1012.6
20200403141504 7 320 8.0 19.3 0.00 0.00 0.00 75 1012.7
20200403141004 7 279 9.7 19.3 0.00 0.00 0.00 76 1012.7
20200403140504 7 284 9.7 16.1 0.00 0.00 0.00 76 1012.7
20200403140004 7 306 9.7 16.1 0.00 0.00 0.00 74 1012.8
20200403135505 6 285 6.4 14.5 0.00 0.00 0.00 75 1012.9
20200403135004 6 292 4.8 14.5 0.00 0.00 0.00 76 1013.0
20200403134504 6 268 9.7 16.1 0.00 0.00 0.00 76 1013.1
20200403134004 6 295 8.0 19.3 0.00 0.00 0.00 76 1013.1
20200403133503 6 268 9.7 19.3 0.00 0.00 0.00 76 1013.1
20200403133002 6 273 6.4 17.7 0.00 0.00 0.00 77 1013.2
20200403132505 6 327 8.0 19.3 0.00 0.00 0.00 75 1013.2
20200403132004 6 335 6.4 16.1 0.00 0.00 0.00 76 1013.2
20200403131504 6 258 6.4 17.7 0.00 0.00 0.00 74 1013.2
20200403131004 6 273 11.3 19.3 0.00 0.00 0.00 73 1013.1
20200403130503 7 292 11.3 17.7 0.00 0.00 0.00 71 1013.2
20200403130004 7 284 9.7 17.7 0.00 0.00 0.00 71 1013.1
20200403125504 7 294 9.7 20.9 0.00 0.00 0.00 70 1013.1
20200403125003 7 273 9.7 20.9 0.00 0.00 0.00 69 1013.1
20200403124503 7 284 9.7 19.3 0.00 0.00 0.00 69 1013.1
20200403124004 7 273 11.3 22.5 0.00 0.00 0.00 69 1013.0
20200403123504 7 284 11.3 20.9 0.00 0.00 0.00 70 1013.1
20200403123004 7 273 9.7 20.9 0.00 0.00 0.00 71 1013.0
20200403122504 7 288 9.7 20.9 0.00 0.00 0.00 71 1013.0
20200403122004 7 245 8.0 17.7 0.00 0.00 0.00 72 1013.0
20200403121504 6 258 6.4 14.5 0.00 0.00 0.00 73 1013.0
20200403121004 6 248 6.4 9.7 0.00 0.00 0.00 74 1013.1
20200403120503 6 337 4.8 12.9 0.00 0.00 0.00 75 1013.1
20200403120004 6 305 6.4 16.1 0.00 0.00 0.00 75 1013.2
20200403115505 6 244 8.0 16.1 0.00 0.00 0.00 74 1013.1
20200403115003 6 319 8.0 14.5 0.00 0.00 0.00 74 1013.1
20200403114504 6 263 8.0 12.9 0.00 0.00 0.00 73 1013.1
20200403114003 6 268 6.4 14.5 0.00 0.00 0.00 74 1013.1
20200403113503 6 259 6.4 14.5 0.00 0.00 0.00 73 1013.1
20200403113004 6 263 8.0 16.1 0.00 0.00 0.00 73 1013.1
20200403112504 6 284 6.4 17.7 0.00 0.00 0.00 74 1013.1
20200403112004 6 291 8.0 17.7 0.00 0.00 0.00 75 1013.1
20200403111503 6 296 8.0 17.7 0.00 0.00 0.00 75 1013.1
20200403111004 6 298 6.4 14.5 0.00 0.00 0.00 76 1013.2
20200403110503 6 263 8.0 14.5 0.00 0.00 0.00 77 1013.2
20200403110003 6 316 6.4 14.5 0.00 0.00 0.00 77 1013.2
20200403105503 6 309 8.0 14.5 0.00 0.00 0.00 78 1013.2
20200403105004 6 279 8.0 14.5 0.00 0.00 0.00 79 1013.2
20200403104503 5 289 8.0 16.1 0.00 0.00 0.00 79 1013.2
20200403104004 5 318 9.7 19.3 0.00 0.00 0.00 79 1013.2
20200403103503 5 319 8.0 17.7 0.00 0.00 0.00 81 1013.2
20200403103004 5 288 8.0 17.7 0.00 0.00 0.00 79 1013.4
20200403102004 5 254 6.4 16.1 0.00 0.00 0.00 79 1013.2
20200403101503 5 232 6.4 14.5 0.00 0.00 0.00 78 1013.1
20200403101003 5 268 8.0 14.5 0.00 0.00 0.00 78 1013.2
20200403100503 5 293 4.8 14.5 0.00 0.00 0.00 76 1013.2
20200403100004 5 294 6.4 14.5 0.00 0.00 0.00 75 1013.2
20200403095503 5 280 6.4 14.5 0.00 0.00 0.00 72 1013.1
20200403095003 5 313 4.8 14.5 0.00 0.00 0.00 72 1013.2
20200403094503 5 351 8.0 14.5 0.00 0.00 0.00 72 1013.1
20200403094003 5 339 8.0 14.5 0.00 0.00 0.00 72 1013.0
20200403093503 5 273 6.4 16.1 0.00 0.00 0.00 73 1013.1
20200403093003 5 308 9.7 16.1 0.00 0.00 0.00 72 1013.1
20200403092503 5 257 6.4 14.5 0.00 0.00 0.00 72 1012.9
20200403092003 5 263 6.4 14.5 0.00 0.00 0.00 74 1013.2
20200403091512 5 263 6.4 9.7 0.00 0.00 0.00 74 1013.0
20200403091003 5 268 4.8 9.7 0.00 0.00 0.00 75 1012.8
20200403090503 5 263 4.8 9.7 0.00 0.00 0.00 75 1013.0
20200403090003 5 288 4.8 9.7 0.00 0.00 0.00 77 1012.8
20200403085503 5 273 4.8 9.7 0.00 0.00 0.00 75 1012.8
20200403085004 5 281 6.4 12.9 0.00 0.00 0.00 76 1012.9
20200403084503 5 273 6.4 12.9 0.00 0.00 0.00 76 1012.7
20200403084003 5 225 6.4 12.9 0.00 0.00 0.00 77 1012.8
20200403083503 5 293 3.2 8.0 0.00 0.00 0.00 77 1012.8
20200403083003 5 228 6.4 9.7 0.00 0.00 0.00 77 1012.7
20200403082503 4 321 4.8 9.7 0.00 0.00 0.00 77 1012.8
20200403082003 4 268 4.8 8.0 0.00 0.00 0.00 79 1012.6
20200403081503 4 277 4.8 8.0 0.00 0.00 0.00 79 1012.5
20200403081003 4 273 3.2 8.0 0.00 0.00 0.00 79 1012.5
20200403080503 3 286 4.8 8.0 0.00 0.00 0.00 79 1012.4
20200403080003 3 263 3.2 8.0 0.00 0.00 0.00 79 1012.3
20200403075503 3 217 4.8 8.0 0.00 0.00 0.00 80 1012.5
20200403075003 3 232 3.2 6.4 0.00 0.00 0.00 80 1012.4
20200403074503 3 240 3.2 6.4 0.00 0.00 0.00 80 1012.4
20200403074003 3 258 3.2 6.4 0.00 0.00 0.00 81 1012.4
20200403073504 3 289 4.8 8.0 0.00 0.00 0.00 81 1012.4
20200403073003 3 238 4.8 8.0 0.00 0.00 0.00 82 1012.3
20200403072503 2 256 3.2 12.9 0.00 0.00 0.00 84 1012.3
20200403072003 2 283 4.8 12.9 0.00 0.00 0.00 84 1012.3
20200403071503 1 288 3.2 4.8 0.00 0.00 0.00 83 1012.5
20200403071003 1 232 1.6 4.8 0.00 0.00 0.00 83 1012.5
20200403070503 1 168 1.6 3.2 0.00 0.00 0.00 84 1012.6
20200403070004 0 83 0.0 3.2 0.00 0.00 0.00 84 1012.4
20200403065503 0 83 1.6 4.8 0.00 0.00 0.00 83 1012.4
20200403065003 0 83 1.6 4.8 0.00 0.00 0.00 83 1012.5
20200403064504 0 73 1.6 3.2 0.00 0.00 0.00 84 1012.5
20200403064003 0 86 1.6 3.2 0.00 0.00 0.00 84 1012.4
20200403063503 0 86 1.6 3.2 0.00 0.00 0.00 84 1012.4
20200403063003 0 78 1.6 3.2 0.00 0.00 0.00 84 1012.2
20200403062503 0 78 0.0 3.2 0.00 0.00 0.00 84 1012.2
20200403062003 0 308 0.0 0.0 0.00 0.00 0.00 83 1012.3
20200403061503 0 308 0.0 0.0 0.00 0.00 0.00 83 1012.3
20200403061003 0 308 0.0 3.2 0.00 0.00 0.00 83 1012.3
20200403060503 0 308 1.6 3.2 0.00 0.00 0.00 83 1012.4
20200403060004 0 306 1.6 3.2 0.00 0.00 0.00 83 1012.5
20200403055503 0 306 1.6 3.2 0.00 0.00 0.00 82 1012.4
20200403055003 0 9 1.6 3.2 0.00 0.00 0.00 83 1012.4
20200403054503 0 9 0.0 3.2 0.00 0.00 0.00 84 1012.3
20200403054003 0 9 1.6 3.2 0.00 0.00 0.00 84 1012.4
20200403053503 0 9 0.0 3.2 0.00 0.00 0.00 82 1012.3
20200403053003 0 9 0.0 3.2 0.00 0.00 0.00 81 1012.4
20200403052503 0 9 0.0 3.2 0.00 0.00 0.00 81 1012.5
20200403052003 0 9 1.6 3.2 0.00 0.00 0.00 81 1012.6
20200403051503 0 9 3.2 6.4 0.00 0.00 0.00 82 1012.6
20200403051003 0 6 1.6 11.3 0.00 0.00 0.00 83 1012.6
20200403050503 0 19 4.8 12.9 0.00 0.00 0.00 84 1012.5
20200403050003 0 15 6.4 9.7 0.00 0.00 0.00 85 1012.4
20200403045503 -1 346 4.8 9.7 0.00 0.00 0.00 85 1012.5
20200403045003 -1 13 1.6 4.8 0.00 0.00 0.00 84 1012.5
20200403044503 -1 26 1.6 6.4 0.00 0.00 0.00 84 1012.5
20200403044003 -1 29 3.2 6.4 0.00 0.00 0.00 84 1012.4
20200403043503 -1 1 3.2 4.8 0.00 0.00 0.00 83 1012.4
20200403043002 -1 38 0.0 3.2 0.00 0.00 0.00 83 1012.4
20200403042503 -1 44 0.0 4.8 0.00 0.00 0.00 81 1012.3
20200403042003 -1 44 0.0 4.8 0.00 0.00 0.00 81 1012.3
20200403041502 -1 15 3.2 4.8 0.00 0.00 0.00 81 1012.4
20200403041003 -1 14 3.2 4.8 0.00 0.00 0.00 80 1012.4
20200403040503 0 336 1.6 4.8 0.00 0.00 0.00 79 1012.5
20200403040003 0 336 3.2 6.4 0.00 0.00 0.00 80 1012.5
20200403035503 0 19 3.2 6.4 0.00 0.00 0.00 79 1012.3
20200403035003 0 38 0.0 4.8 0.00 0.00 0.00 79 1012.4
20200403034503 0 38 3.2 6.4 0.00 0.00 0.00 79 1012.4
20200403034002 0 53 1.6 6.4 0.00 0.00 0.00 79 1012.5
20200403033503 0 49 3.2 6.4 0.00 0.00 0.00 78 1012.4
20200403033003 0 40 3.2 8.0 0.00 0.00 0.00 78 1012.4
20200403032502 0 36 3.2 8.0 0.00 0.00 0.00 78 1012.4
20200403032003 0 24 4.8 6.4 0.00 0.00 0.00 78 1012.3
20200403031503 0 29 3.2 6.4 0.00 0.00 0.00 77 1012.3
20200403031002 0 37 3.2 4.8 0.00 0.00 0.00 77 1012.4
20200403030503 0 26 3.2 6.4 0.00 0.00 0.00 78 1012.3
20200403030003 0 25 4.8 6.4 0.00 0.00 0.00 77 1012.2
20200403025503 0 19 3.2 4.8 0.00 0.00 0.00 77 1012.3
20200403025002 0 24 3.2 4.8 0.00 0.00 0.00 77 1012.3